QPF
0.00 0.00 0.00 0.00 0.00 0.00 0.00 0.01 0.01 0.01 0.01 0.01 0.01 0.01 0.02 0.01 0.01 0.01 0.02 0.02 0.03 0.04 0.05 0.05 0.06 0.09 0.10 0.11 0.13 0.12 0.10 0.11 0.09 0.06 0.05 0.05 0.04 0.02 0.02 0.06 0.16 0.22 0.08
0.00 0.00 0.00 0.00 0.00 0.00 0.00 0.00 0.01 0.00 0.00 0.01 0.01 0.01 0.01 0.01 0.01 0.01 0.01 0.01 0.01 0.02 0.04 0.05 0.06 0.06 0.08 0.09 0.10 0.09 0.07 0.07 0.08 0.07 0.07 0.07 0.05 0.03 0.03 0.06 0.15 0.20 0.11
0.00 0.00 0.00 0.00 0.00 0.00 0.00 0.00 0.01 0.01 0.00 0.00 0.01 0.01 0.00 0.00 0.00 0.01 0.01 0.01 0.01 0.01 0.01 0.03 0.04 0.05 0.08 0.09 0.07 0.05 0.06 0.05 0.06 0.06 0.14 0.23 0.11 0.05 0.03 0.04 0.06 0.09 0.11
0.00 0.00 0.00 0.00 0.00 0.00 0.00 0.00 0.01 0.01 0.00 0.00 0.01 0.01 0.00 0.00 0.00 0.00 0.00 0.01 0.01 0.01 0.01 0.01 0.03 0.03 0.06 0.07 0.05 0.05 0.05 0.04 0.04 0.06 0.13 0.27 0.22 0.06 0.03 0.02 0.03 0.06 0.09
0.00 0.00 0.01 0.00 0.00 0.01 0.01 0.01 0.01 0.01 0.01 0.01 0.00 0.00 0.00 0.00 0.00 0.00 0.00 0.01 0.01 0.02 0.01 0.01 0.02 0.02 0.03 0.04 0.03 0.03 0.04 0.03 0.02 0.06 0.13 0.20 0.18 0.07 0.03 0.03 0.03 0.05 0.05
0.00 0.00 0.00 0.00 0.01 0.02 0.02 0.02 0.03 0.03 0.02 0.01 0.00 0.00 0.00 0.00 0.00 0.00 0.00 0.00 0.01 0.01 0.01 0.01 0.01 0.02 0.03 0.03 0.04 0.04 0.03 0.03 0.06 0.12 0.17 0.23 0.21 0.07 0.03 0.02 0.03 0.05 0.06
0.00 0.00 0.00 0.00 0.01 0.03 0.03 0.05 0.07 0.08 0.04 0.02 0.01 0.00 0.00 0.00 0.00 0.01 0.02 0.01 0.00 0.00 0.00 0.01 0.01 0.02 0.03 0.03 0.04 0.04 0.03 0.05 0.14 0.15 0.16 0.24 0.21 0.06 0.03 0.02 0.03 0.05 0.09
0.00 0.00 0.00 0.00 0.01 0.02 0.04 0.05 0.09 0.08 0.05 0.03 0.01 0.01 0.01 0.00 0.00 0.01 0.02 0.02 0.01 0.00 0.00 0.00 0.00 0.00 0.01 0.01 0.02 0.03 0.01 0.04 0.10 0.08 0.10 0.17 0.10 0.04 0.02 0.02 0.03 0.04 0.08
0.00 0.00 0.00 0.00 0.00 0.01 0.02 0.03 0.07 0.10 0.08 0.05 0.02 0.01 0.01 0.01 0.00 0.00 0.01 0.01 0.00 0.00 0.00 0.00 0.00 0.00 0.00 0.00 0.01 0.01 0.01 0.02 0.02 0.03 0.05 0.08 0.03 0.02 0.02 0.02 0.03 0.06 0.08
0.00 0.00 0.00 0.00 0.01 0.02 0.02 0.02 0.04 0.09 0.11 0.05 0.02 0.01 0.01 0.00 0.00 0.00 0.00 0.00 0.00 0.00 0.00 0.00 0.00 0.00 0.00 0.00 0.00 0.00 0.00 0.00 0.00 0.01 0.02 0.03 0.01 0.01 0.02 0.03 0.05 0.06 0.08
0.00 0.00 0.00 0.01 0.01 0.02 0.03 0.03 0.02 0.05 0.09 0.05 0.01 0.01 0.00 0.02 0.02 0.01 0.00 0.00 0.00 0.00 0.00 0.00 0.00 0.00 0.00 0.00 0.00 0.00 0.00 0.00 0.00 0.00 0.01 0.00 0.00 0.01 0.01 0.01 0.02 0.03 0.05
0.00 0.00 0.00 0.00 0.00 0.01 0.03 0.08 0.03 0.04 0.05 0.04 0.07 0.02 0.04 0.13 0.10 0.03 0.00 0.00 0.00 0.00 0.00 0.00 0.00 0.00 0.00 0.00 0.00 0.00 0.00 0.00 0.00 0.00 0.00 0.00 0.00 0.00 0.00 0.00 0.00 0.00 0.01
0.00 0.00 0.00 0.00 0.00 0.01 0.05 0.08 0.08 0.13 0.17 0.20 0.17 0.06 0.07 0.12 0.05 0.00 0.00 0.00 0.00 0.00 0.00 0.00 0.00 0.00 0.00 0.00 0.00 0.00 0.00 0.00 0.00 0.00 0.01 0.00 0.00 0.00 0.00 0.00 0.00 0.00 0.00
0.00 0.00 0.00 0.00 0.00 0.00 0.02 0.05 0.06 0.09 0.18 0.21 0.12 0.04 0.02 0.04 0.02 0.00 0.00 0.00 0.00 0.00 0.00 0.00 0.00 0.00 0.00 0.00 0.00 0.00 0.00 0.00 0.00 0.00 0.01 0.00 0.00 0.00 0.00 0.00 0.00 0.00 0.00
0.00 0.00 0.00 0.00 0.00 0.00 0.01 0.03 0.02 0.04 0.09 0.14 0.15 0.04 0.02 0.01 0.01 0.00 0.00 0.00 0.00 0.00 0.00 0.00 0.00 0.00 0.00 0.00 0.00 0.00 0.00 0.00 0.00 0.00 0.02 0.00 0.00 0.00 0.00 0.00 0.01 0.00 0.00
0.00 0.00 0.00 0.00 0.00 0.00 0.00 0.01 0.02 0.02 0.03 0.06 0.06 0.01 0.02 0.01 0.00 0.00 0.00 0.00 0.00 0.00 0.00 0.00 0.00 0.00 0.00 0.00 0.00 0.00 0.00 0.00 0.00 0.00 0.02 0.01 0.00 0.00 0.00 0.00 0.01 0.01 0.00
0.01 0.00 0.00 0.00 0.00 0.00 0.00 0.00 0.01 0.01 0.01 0.01 0.02 0.01 0.01 0.01 0.00 0.00 0.00 0.00 0.00 0.00 0.00 0.00 0.00 0.00 0.00 0.00 0.00 0.00 0.00 0.00 0.00 0.00 0.00 0.01 0.01 0.00 0.00 0.00 0.00 0.00 0.01
0.04 0.02 0.01 0.00 0.00 0.00 0.00 0.00 0.00 0.00 0.02 0.02 0.04 0.01 0.01 0.00 0.00 0.00 0.00 0.00 0.00 0.00 0.00 0.00 0.00 0.00 0.00 0.00 0.00 0.00 0.00 0.00 0.00 0.00 0.00 0.00 0.00 0.01 0.01 0.00 0.00 0.00 0.01
0.08 0.06 0.04 0.02 0.00 0.00 0.00 0.00 0.00 0.00 0.02 0.02 0.02 0.01 0.00 0.01 0.00 0.01 0.00 0.00 0.00 0.00 0.00 0.00 0.00 0.00 0.00 0.00 0.00 0.00 0.00 0.00 0.00 0.00 0.00 0.00 0.00 0.00 0.00 0.00 0.00 0.00 0.01
0.09 0.08 0.06 0.05 0.03 0.01 0.01 0.01 0.02 0.02 0.02 0.01 0.02 0.02 0.00 0.01 0.01 0.02 0.01 0.00 0.00 0.00 0.01 0.01 0.01 0.01 0.01 0.00 0.00 0.00 0.00 0.00 0.00 0.00 0.00 0.00 0.00 0.00 0.00 0.00 0.02 0.01 0.00
0.02 0.03 0.04 0.05 0.05 0.03 0.02 0.01 0.04 0.04 0.03 0.03 0.04 0.02 0.02 0.01 0.01 0.03 0.02 0.02 0.02 0.02 0.01 0.02 0.09 0.10 0.06 0.01 0.03 0.03 0.01 0.00 0.00 0.00 0.00 0.00 0.00 0.00 0.00 0.00 0.02 0.02 0.01
0.00 0.01 0.01 0.02 0.03 0.04 0.04 0.04 0.06 0.07 0.07 0.07 0.06 0.05 0.05 0.02 0.02 0.03 0.04 0.06 0.06 0.10 0.10 0.12 0.17 0.16 0.11 0.04 0.07 0.14 0.11 0.07 0.02 0.00 0.00 0.00 0.00 0.00 0.00 0.00 0.00 0.00 0.01
0.01 0.01 0.01 0.01 0.02 0.03 0.07 0.21 0.38 0.45 0.36 0.25 0.16 0.13 0.10 0.06 0.05 0.05 0.09 0.14 0.13 0.17 0.18 0.16 0.13 0.13 0.10 0.06 0.05 0.14 0.14 0.15 0.13 0.03 0.00 0.00 0.00 0.00 0.00 0.00 0.00 0.00 0.00
0.01 0.01 0.01 0.01 0.02 0.03 0.11 0.32 0.56 0.64 0.55 0.44 0.33 0.23 0.16 0.10 0.08 0.10 0.11 0.11 0.13 0.17 0.13 0.07 0.06 0.09 0.12 0.09 0.10 0.08 0.05 0.06 0.11 0.09 0.04 0.00 0.00 0.00 0.00 0.00 0.00 0.00 0.00
0.01 0.01 0.02 0.03 0.04 0.05 0.12 0.31 0.52 0.64 0.64 0.60 0.49 0.38 0.28 0.18 0.13 0.13 0.13 0.14 0.14 0.15 0.12 0.11 0.15 0.18 0.13 0.13 0.13 0.09 0.05 0.05 0.05 0.11 0.11 0.07 0.02 0.00 0.00 0.00 0.00 0.00 0.00
0.01 0.02 0.03 0.06 0.06 0.08 0.15 0.26 0.40 0.52 0.59 0.64 0.61 0.49 0.34 0.23 0.18 0.19 0.21 0.20 0.14 0.12 0.11 0.14 0.17 0.16 0.13 0.12 0.09 0.07 0.07 0.05 0.08 0.12 0.11 0.15 0.12 0.02 0.00 0.00 0.00 0.00 0.00
MSLP
1010.50 1010.34 1010.29 1010.39 1010.65 1011.02 1011.45 1011.85 1012.17 1012.38 1012.48 1012.53 1012.57 1012.66 1012.84 1013.11 1013.44 1013.79 1014.11 1014.35 1014.50 1014.57 1014.57 1014.55 1014.54 1014.57 1014.64 1014.74 1014.87 1014.99 1015.09 1015.17 1015.21 1015.24 1015.27 1015.29 1015.32 1015.35 1015.38 1015.40 1015.41 1015.42 1015.43
1010.24 1010.19 1010.25 1010.47 1010.83 1011.28 1011.74 1012.15 1012.44 1012.60 1012.67 1012.69 1012.73 1012.84 1013.06 1013.36 1013.72 1014.08 1014.39 1014.61 1014.72 1014.75 1014.72 1014.68 1014.67 1014.69 1014.76 1014.85 1014.96 1015.05 1015.12 1015.17 1015.20 1015.24 1015.29 1015.36 1015.44 1015.52 1015.58 1015.62 1015.62 1015.60 1015.57
1009.91 1009.97 1010.15 1010.50 1010.97 1011.49 1011.99 1012.41 1012.68 1012.83 1012.87 1012.88 1012.92 1013.05 1013.28 1013.60 1013.96 1014.30 1014.57 1014.75 1014.82 1014.82 1014.78 1014.74 1014.74 1014.79 1014.87 1014.96 1015.05 1015.11 1015.14 1015.15 1015.16 1015.20 1015.28 1015.40 1015.54 1015.68 1015.79 1015.85 1015.86 1015.82 1015.75
1009.55 1009.71 1010.03 1010.49 1011.06 1011.65 1012.20 1012.62 1012.89 1013.03 1013.06 1013.08 1013.14 1013.28 1013.52 1013.83 1014.17 1014.47 1014.69 1014.82 1014.85 1014.83 1014.80 1014.79 1014.82 1014.90 1015.01 1015.11 1015.18 1015.21 1015.19 1015.15 1015.14 1015.17 1015.27 1015.43 1015.63 1015.83 1015.99 1016.08 1016.10 1016.06 1015.98
1009.22 1009.49 1009.92 1010.48 1011.13 1011.78 1012.36 1012.79 1013.06 1013.19 1013.24 1013.27 1013.35 1013.52 1013.77 1014.07 1014.38 1014.63 1014.80 1014.88 1014.88 1014.85 1014.84 1014.86 1014.95 1015.08 1015.22 1015.33 1015.38 1015.36 1015.30 1015.22 1015.17 1015.19 1015.29 1015.48 1015.72 1015.97 1016.17 1016.30 1016.33 1016.30 1016.22
1008.99 1009.35 1009.86 1010.51 1011.21 1011.89 1012.47 1012.90 1013.17 1013.31 1013.37 1013.44 1013.55 1013.75 1014.01 1014.31 1014.59 1014.81 1014.93 1014.97 1014.96 1014.93 1014.95 1015.02 1015.15 1015.33 1015.49 1015.60 1015.63 1015.58 1015.46 1015.34 1015.26 1015.26 1015.37 1015.57 1015.83 1016.10 1016.33 1016.47 1016.53 1016.50 1016.44
1008.90 1009.32 1009.89 1010.58 1011.30 1011.99 1012.55 1012.97 1013.23 1013.37 1013.46 1013.56 1013.71 1013.94 1014.23 1014.54 1014.81 1015.00 1015.10 1015.12 1015.10 1015.09 1015.14 1015.25 1015.42 1015.62 1015.79 1015.89 1015.90 1015.81 1015.66 1015.50 1015.39 1015.38 1015.48 1015.69 1015.96 1016.23 1016.46 1016.60 1016.66 1016.65 1016.60
1008.93 1009.39 1009.98 1010.68 1011.40 1012.05 1012.59 1012.97 1013.22 1013.36 1013.47 1013.61 1013.81 1014.09 1014.41 1014.73 1015.00 1015.19 1015.28 1015.30 1015.30 1015.31 1015.37 1015.51 1015.69 1015.90 1016.06 1016.14 1016.12 1016.00 1015.83 1015.65 1015.54 1015.53 1015.63 1015.83 1016.09 1016.35 1016.55 1016.68 1016.73 1016.72 1016.69
1009.04 1009.50 1010.10 1010.78 1011.46 1012.07 1012.56 1012.91 1013.13 1013.28 1013.42 1013.60 1013.84 1014.16 1014.51 1014.85 1015.14 1015.33 1015.44 1015.47 1015.48 1015.51 1015.58 1015.72 1015.91 1016.09 1016.22 1016.26 1016.21 1016.08 1015.90 1015.74 1015.65 1015.66 1015.78 1015.99 1016.23 1016.46 1016.63 1016.72 1016.74 1016.72 1016.70
1009.13 1009.59 1010.17 1010.81 1011.45 1012.01 1012.45 1012.77 1012.98 1013.14 1013.30 1013.51 1013.80 1014.15 1014.52 1014.88 1015.18 1015.39 1015.50 1015.56 1015.59 1015.63 1015.71 1015.84 1015.99 1016.13 1016.21 1016.22 1016.14 1016.01 1015.85 1015.73 1015.69 1015.76 1015.92 1016.14 1016.38 1016.57 1016.70 1016.75 1016.73 1016.68 1016.66
1009.14 1009.58 1010.13 1010.73 1011.32 1011.83 1012.24 1012.54 1012.75 1012.93 1013.12 1013.37 1013.69 1014.05 1014.44 1014.80 1015.10 1015.31 1015.45 1015.52 1015.57 1015.62 1015.70 1015.80 1015.92 1016.00 1016.03 1016.00 1015.91 1015.79 1015.68 1015.63 1015.67 1015.81 1016.03 1016.28 1016.51 1016.69 1016.77 1016.77 1016.72 1016.65 1016.61
1009.01 1009.43 1009.95 1010.51 1011.05 1011.53 1011.92 1012.23 1012.46 1012.68 1012.91 1013.19 1013.52 1013.89 1014.26 1014.61 1014.89 1015.10 1015.24 1015.33 1015.40 1015.47 1015.55 1015.63 1015.71 1015.74 1015.73 1015.67 1015.57 1015.48 1015.43 1015.46 1015.59 1015.82 1016.10 1016.39 1016.64 1016.80 1016.86 1016.83 1016.73 1016.64 1016.59
1008.77 1009.15 1009.63 1010.15 1010.66 1011.12 1011.52 1011.84 1012.12 1012.39 1012.67 1012.97 1013.31 1013.67 1014.01 1014.31 1014.57 1014.76 1014.90 1015.00 1015.10 1015.19 1015.28 1015.37 1015.42 1015.43 1015.39 1015.30 1015.21 1015.15 1015.17 1015.28 1015.50 1015.80 1016.15 1016.49 1016.75 1016.91 1016.95 1016.89 1016.78 1016.68 1016.62
1008.45 1008.80 1009.23 1009.70 1010.18 1010.63 1011.04 1011.40 1011.74 1012.07 1012.40 1012.73 1013.07 1013.40 1013.69 1013.95 1014.15 1014.32 1014.45 1014.58 1014.71 1014.85 1014.98 1015.08 1015.14 1015.15 1015.10 1015.02 1014.94 1014.92 1014.98 1015.16 1015.44 1015.80 1016.20 1016.55 1016.83 1016.98 1017.02 1016.96 1016.85 1016.75 1016.71
1008.17 1008.45 1008.82 1009.23 1009.67 1010.10 1010.52 1010.93 1011.33 1011.72 1012.10 1012.46 1012.80 1013.09 1013.33 1013.53 1013.68 1013.82 1013.96 1014.12 1014.30 1014.49 1014.69 1014.84 1014.95 1014.98 1014.96 1014.89 1014.84 1014.85 1014.94 1015.15 1015.46 1015.84 1016.24 1016.59 1016.85 1017.00 1017.04 1017.00 1016.91 1016.84 1016.82
1008.01 1008.21 1008.49 1008.82 1009.18 1009.58 1010.00 1010.43 1010.88 1011.33 1011.76 1012.15 1012.48 1012.74 1012.94 1013.08 1013.20 1013.31 1013.46 1013.66 1013.91 1014.19 1014.47 1014.71 1014.89 1014.98 1015.00 1014.98 1014.96 1014.98 1015.08 1015.28 1015.57 1015.92 1016.28 1016.59 1016.82 1016.94 1016.98 1016.96 1016.91 1016.89 1016.91
1008.04 1008.14 1008.30 1008.51 1008.78 1009.10 1009.48 1009.92 1010.39 1010.88 1011.35 1011.76 1012.10 1012.34 1012.51 1012.62 1012.71 1012.83 1013.00 1013.26 1013.58 1013.96 1014.34 1014.68 1014.95 1015.13 1015.22 1015.24 1015.25 1015.28 1015.37 1015.54 1015.77 1016.04 1016.32 1016.55 1016.71 1016.80 1016.83 1016.83 1016.83 1016.87 1016.96
1008.29 1008.26 1008.27 1008.33 1008.47 1008.68 1008.99 1009.39 1009.86 1010.37 1010.86 1011.30 1011.65 1011.90 1012.06 1012.16 1012.26 1012.39 1012.60 1012.92 1013.32 1013.79 1014.28 1014.72 1015.10 1015.36 1015.53 1015.61 1015.65 1015.69 1015.76 1015.87 1016.02 1016.19 1016.35 1016.48 1016.56 1016.59 1016.60 1016.61 1016.66 1016.77 1016.93
1008.71 1008.54 1008.39 1008.28 1008.24 1008.32 1008.53 1008.86 1009.30 1009.80 1010.31 1010.77 1011.14 1011.42 1011.60 1011.73 1011.85 1012.02 1012.29 1012.66 1013.13 1013.68 1014.25 1014.78 1015.24 1015.60 1015.84 1015.98 1016.06 1016.12 1016.16 1016.22 1016.29 1016.35 1016.40 1016.41 1016.39 1016.35 1016.33 1016.35 1016.44 1016.60 1016.83
1009.23 1008.92 1008.60 1008.31 1008.11 1008.03 1008.11 1008.35 1008.73 1009.21 1009.72 1010.21 1010.62 1010.94 1011.18 1011.36 1011.53 1011.75 1012.06 1012.48 1013.00 1013.59 1014.21 1014.80 1015.32 1015.74 1016.04 1016.25 1016.38 1016.46 1016.51 1016.54 1016.54 1016.52 1016.46 1016.36 1016.25 1016.15 1016.08 1016.09 1016.19 1016.40 1016.68
1009.77 1009.34 1008.87 1008.41 1008.04 1007.81 1007.76 1007.90 1008.22 1008.66 1009.18 1009.69 1010.15 1010.54 1010.84 1011.09 1011.32 1011.59 1011.94 1012.39 1012.92 1013.52 1014.14 1014.75 1015.28 1015.73 1016.09 1016.35 1016.53 1016.66 1016.74 1016.77 1016.75 1016.68 1016.55 1016.38 1016.19 1016.02 1015.91 1015.89 1015.99 1016.21 1016.52
1010.28 1009.75 1009.16 1008.57 1008.06 1007.70 1007.53 1007.58 1007.84 1008.25 1008.76 1009.30 1009.81 1010.27 1010.64 1010.97 1011.27 1011.58 1011.95 1012.39 1012.90 1013.46 1014.04 1014.60 1015.12 1015.56 1015.94 1016.25 1016.49 1016.69 1016.83 1016.90 1016.91 1016.84 1016.69 1016.48 1016.24 1016.01 1015.85 1015.80 1015.87 1016.08 1016.38
1010.74 1010.15 1009.48 1008.81 1008.21 1007.76 1007.51 1007.48 1007.68 1008.06 1008.57 1009.13 1009.69 1010.20 1010.64 1011.03 1011.38 1011.73 1012.09 1012.50 1012.95 1013.42 1013.91 1014.39 1014.84 1015.25 1015.63 1015.97 1016.28 1016.55 1016.78 1016.94 1017.01 1016.99 1016.86 1016.65 1016.39 1016.13 1015.93 1015.83 1015.85 1016.02 1016.29
1011.17 1010.55 1009.86 1009.16 1008.53 1008.03 1007.73 1007.67 1007.82 1008.18 1008.67 1009.24 1009.82 1010.37 1010.86 1011.29 1011.67 1012.01 1012.35 1012.70 1013.05 1013.42 1013.79 1014.15 1014.51 1014.86 1015.21 1015.57 1015.93 1016.28 1016.61 1016.88 1017.06 1017.11 1017.05 1016.87 1016.62 1016.34 1016.10 1015.95 1015.91 1016.01 1016.23
1011.61 1011.01 1010.34 1009.66 1009.04 1008.55 1008.24 1008.15 1008.28 1008.61 1009.08 1009.63 1010.21 1010.76 1011.27 1011.70 1012.08 1012.41 1012.70 1012.96 1013.21 1013.45 1013.69 1013.92 1014.17 1014.44 1014.75 1015.11 1015.52 1015.94 1016.37 1016.75 1017.03 1017.19 1017.20 1017.08 1016.86 1016.58 1016.31 1016.10 1016.01 1016.03 1016.17
1012.12 1011.56 1010.95 1010.32 1009.75 1009.30 1009.01 1008.92 1009.03 1009.32 1009.75 1010.26 1010.80 1011.32 1011.80 1012.21 1012.55 1012.83 1013.06 1013.24 1013.39 1013.51 1013.62 1013.73 1013.87 1014.05 1014.32 1014.66 1015.09 1015.57 1016.07 1016.54 1016.93 1017.18 1017.28 1017.22 1017.04 1016.77 1016.48 1016.23 1016.07 1016.02 1016.08
Thickness
5820 5818 5812 5809 5806 5804 5802 5799 5796 5793 5790 5787 5785 5782 5780 5777 5775 5773 5772 5770 5769 5768 5767 5767 5767 5767 5767 5767 5766 5766 5768 5770 5771 5773 5774 5775 5776 5776 5778 5779 5780 5780 5780
5826 5819 5813 5810 5807 5805 5802 5799 5796 5793 5791 5788 5785 5782 5779 5777 5774 5772 5770 5769 5768 5767 5766 5766 5766 5766 5765 5765 5765 5765 5766 5768 5769 5771 5771 5772 5772 5773 5774 5776 5777 5777 5777
5828 5819 5814 5811 5808 5805 5802 5800 5797 5794 5792 5789 5786 5782 5779 5776 5774 5771 5769 5768 5767 5766 5765 5764 5764 5764 5764 5764 5764 5764 5765 5766 5768 5768 5768 5768 5769 5770 5771 5772 5773 5774 5774
5829 5821 5816 5811 5808 5806 5803 5800 5797 5795 5792 5789 5786 5783 5780 5777 5774 5771 5769 5767 5766 5765 5764 5763 5763 5762 5762 5762 5762 5763 5764 5764 5766 5766 5766 5766 5767 5766 5767 5768 5770 5771 5771
5831 5824 5817 5812 5808 5805 5803 5800 5797 5795 5792 5789 5786 5783 5780 5777 5774 5771 5769 5767 5765 5764 5763 5762 5762 5761 5761 5760 5760 5761 5762 5762 5764 5765 5765 5765 5765 5764 5765 5765 5766 5767 5768
5831 5824 5817 5812 5808 5805 5802 5800 5797 5795 5793 5790 5787 5784 5782 5779 5775 5772 5770 5768 5766 5764 5762 5761 5761 5761 5760 5759 5759 5759 5760 5761 5762 5764 5764 5763 5763 5762 5762 5763 5764 5765 5765
5830 5823 5815 5811 5808 5805 5802 5800 5797 5795 5793 5791 5788 5785 5783 5780 5777 5774 5771 5769 5766 5764 5762 5761 5760 5760 5760 5759 5759 5759 5759 5760 5762 5764 5763 5762 5762 5761 5761 5762 5762 5762 5762
5831 5824 5815 5811 5808 5805 5802 5800 5797 5795 5793 5791 5789 5786 5784 5782 5779 5777 5774 5771 5768 5765 5763 5762 5761 5760 5760 5759 5759 5759 5760 5761 5763 5765 5763 5762 5761 5761 5760 5760 5761 5761 5761
5832 5825 5816 5811 5808 5805 5802 5800 5798 5796 5794 5791 5789 5786 5784 5782 5780 5778 5775 5772 5770 5767 5765 5763 5762 5761 5761 5760 5760 5760 5761 5763 5765 5766 5764 5762 5761 5760 5759 5759 5759 5759 5759
5831 5827 5820 5814 5810 5806 5803 5800 5798 5796 5794 5791 5788 5786 5784 5782 5780 5778 5776 5774 5771 5769 5767 5765 5763 5762 5761 5761 5761 5761 5762 5764 5766 5765 5763 5761 5760 5759 5758 5757 5757 5757 5758
5828 5827 5823 5819 5814 5810 5806 5802 5798 5796 5793 5790 5787 5785 5783 5782 5780 5778 5777 5774 5772 5770 5769 5767 5766 5764 5763 5762 5762 5762 5762 5764 5766 5765 5761 5760 5759 5758 5757 5757 5756 5756 5756
5822 5824 5824 5820 5817 5813 5809 5803 5799 5796 5792 5790 5788 5785 5783 5783 5782 5780 5776 5774 5773 5771 5770 5769 5767 5766 5764 5764 5764 5763 5763 5765 5767 5763 5758 5758 5757 5757 5756 5756 5756 5756 5755
5826 5825 5825 5822 5818 5815 5809 5803 5801 5798 5793 5790 5789 5786 5785 5783 5782 5780 5776 5773 5772 5771 5770 5770 5768 5768 5767 5767 5767 5765 5765 5767 5766 5760 5756 5756 5756 5756 5755 5755 5756 5755 5755
5828 5826 5826 5823 5819 5815 5810 5805 5802 5798 5794 5791 5789 5788 5787 5785 5784 5784 5780 5775 5774 5773 5772 5772 5771 5772 5773 5772 5770 5769 5767 5765 5762 5757 5754 5753 5754 5754 5755 5755 5755 5755 5754
5827 5826 5825 5824 5820 5815 5810 5805 5802 5799 5795 5792 5791 5790 5790 5787 5786 5786 5784 5779 5777 5776 5774 5774 5774 5774 5773 5772 5769 5767 5765 5762 5759 5755 5752 5751 5751 5752 5752 5753 5753 5753 5753
5827 5827 5826 5823 5820 5816 5810 5804 5803 5800 5796 5794 5792 5791 5790 5788 5786 5785 5783 5780 5778 5776 5774 5773 5774 5772 5770 5767 5765 5763 5761 5759 5757 5754 5750 5748 5747 5748 5748 5749 5750 5750 5750
5824 5826 5826 5823 5821 5817 5813 5808 5805 5801 5798 5795 5792 5791 5790 5788 5786 5783 5782 5779 5776 5774 5773 5772 5772 5769 5765 5763 5760 5759 5758 5756 5754 5752 5750 5748 5745 5744 5744 5745 5745 5745 5746
5816 5818 5822 5823 5820 5816 5813 5809 5805 5802 5799 5795 5792 5790 5789 5787 5784 5782 5780 5777 5775 5772 5769 5767 5765 5762 5759 5757 5755 5755 5754 5751 5749 5749 5748 5747 5745 5742 5741 5740 5740 5740 5740
5809 5810 5811 5815 5815 5814 5812 5809 5806 5802 5798 5795 5792 5788 5787 5785 5782 5780 5777 5774 5771 5768 5765 5762 5759 5756 5753 5751 5751 5750 5750 5748 5746 5745 5746 5745 5743 5740 5737 5735 5734 5734 5734
5802 5804 5805 5807 5809 5810 5809 5807 5803 5799 5796 5794 5790 5786 5783 5781 5778 5775 5772 5768 5766 5761 5758 5756 5753 5751 5748 5746 5746 5746 5745 5744 5742 5742 5741 5740 5739 5738 5734 5731 5729 5727 5727
5791 5793 5798 5799 5801 5803 5802 5799 5795 5790 5789 5788 5787 5783 5779 5776 5773 5770 5766 5761 5758 5754 5752 5750 5747 5743 5740 5741 5736 5734 5736 5739 5738 5738 5736 5734 5734 5734 5731 5728 5726 5722 5721
5774 5780 5786 5791 5794 5796 5798 5797 5795 5790 5786 5784 5782 5778 5774 5770 5767 5764 5759 5754 5751 5747 5745 5743 5740 5735 5734 5734 5729 5721 5717 5720 5727 5733 5732 5729 5728 5728 5727 5725 5724 5721 5718
5760 5766 5772 5777 5783 5790 5793 5792 5787 5780 5777 5773 5770 5767 5765 5763 5760 5757 5753 5749 5745 5740 5736 5735 5734 5730 5726 5728 5728 5720 5710 5706 5713 5720 5725 5725 5723 5723 5722 5721 5720 5719 5716
5747 5754 5759 5766 5772 5779 5784 5783 5779 5771 5763 5763 5759 5757 5754 5753 5752 5750 5746 5742 5739 5735 5731 5731 5731 5729 5725 5720 5722 5722 5719 5715 5706 5704 5712 5717 5719 5718 5717 5716 5714 5714 5713
5736 5741 5746 5753 5760 5767 5772 5774 5771 5765 5760 5756 5752 5746 5742 5740 5741 5741 5739 5735 5731 5729 5727 5726 5727 5726 5724 5719 5716 5715 5714 5713 5710 5700 5695 5701 5708 5712 5712 5711 5710 5708 5708
5723 5729 5735 5741 5747 5754 5759 5761 5760 5755 5750 5744 5739 5734 5731 5729 5729 5731 5731 5728 5724 5722 5721 5721 5721 5720 5719 5717 5714 5712 5709 5705 5701 5698 5692 5691 5693 5701 5707 5706 5705 5704 5703